SCP
0 0 0 0 0 0 0 0 0 0 0 0 0 0 0 0 0 0 0 0 0 0 0 0 0 0 0 0 0 0 0 0 0 0 0 0 0 0 0 0 0 0 0 0
0 0 0 0 0 0 0 0 0 0 0 0 0 0 0 0 0 0 0 0 0 0 0 0 0 0 0 0 0 0 0 0 0 0 0 0 0 0 0 0 0 0 0 0
0 0 0 0 0 0 0 0 0 0 0 0 0 0 0 0 0 0 0 0 0 0 1 0 0 0 0 0 0 0 0 0 0 0 0 0 0 0 0 0 0 0 0 0
0 0 0 0 0 0 0 0 0 0 0 0 0 0 0 0 0 0 0 0 0 0 0 0 0 0 0 0 0 0 0 0 0 0 0 0 0 0 0 0 0 0 0 0
0 0 0 0 0 0 0 0 0 0 0 0 0 0 0 0 0 0 0 0 0 0 0 0 0 0 0 0 0 0 0 0 0 0 0 0 1 1 0 0 0 0 0 0
0 0 0 0 0 0 0 0 0 0 0 0 0 0 0 0 0 0 0 0 0 0 0 0 1 1 1 1 0 0 0 0 0 0 0 1 1 1 1 1 0 0 0 0
0 0 0 0 0 0 0 0 0 0 0 0 0 0 0 0 0 0 0 0 0 0 0 0 1 1 1 1 1 1 1 1 1 1 1 1 1 1 1 1 0 0 0 0
0 0 0 0 0 0 0 0 0 0 0 0 0 0 0 0 0 0 0 0 0 0 0 1 1 1 1 1 1 1 1 1 1 1 1 1 1 1 1 1 1 0 0 0
0 0 0 0 0 0 0 0 0 0 0 0 0 0 0 0 0 0 1 1 0 0 0 1 1 1 1 1 1 1 1 1 1 1 1 1 1 1 1 1 1 0 0 0
0 0 0 0 0 0 0 0 0 0 0 0 0 0 0 0 0 0 0 1 1 0 0 0 0 0 1 1 1 1 1 1 1 1 1 1 1 1 1 1 1 1 0 0
0 0 0 0 0 0 0 0 0 0 0 0 0 0 0 0 0 0 0 0 1 0 0 0 0 0 1 1 1 1 1 1 1 1 1 1 1 1 1 1 1 0 0 0
0 0 0 0 0 0 0 0 0 0 0 0 0 0 0 0 0 0 0 0 0 1 1 1 1 1 1 1 1 1 1 1 1 1 1 1 1 1 0 0 0 0 0 0
0 0 0 0 0 0 0 0 0 0 0 0 0 0 0 0 0 0 0 0 0 0 1 1 1 1 1 1 1 1 1 1 1 1 1 1 1 0 0 0 0 0 0 0
0 0 0 0 0 0 0 0 0 0 0 0 0 0 0 0 0 0 0 0 0 0 1 1 1 1 1 1 1 1 1 1 1 1 1 1 1 0 0 0 0 0 0 0
0 0 0 0 0 0 0 0 0 0 0 0 0 0 0 0 0 0 0 0 0 0 0 0 0 0 1 1 1 1 1 1 1 1 1 1 0 0 0 0 0 0 0 0
0 0 0 0 0 0 0 0 0 0 0 0 0 0 0 0 0 0 0 0 0 0 0 0 0 0 0 0 1 0 0 0 0 0 0 0 0 0 0 0 0 0 0 0
0 0 0 0 0 0 0 0 0 0 0 0 0 0 0 0 0 0 0 0 0 0 0 0 0 0 0 0 0 0 0 0 0 0 0 0 0 0 0 0 0 0 0 0
0 0 0 0 0 0 0 0 0 0 0 0 0 0 0 0 0 0 0 0 0 0 0 0 0 0 0 0 0 0 0 0 0 0 0 0 0 0 0 0 0 0 0 0
0 0 0 0 0 0 0 0 0 0 0 0 0 0 0 0 0 0 0 0 0 0 0 0 0 0 0 0 0 0 0 0 0 0 0 0 0 0 0 0 0 0 0 0
0 0 0 0 0 0 0 0 0 0 0 0 0 0 0 0 0 0 0 0 0 0 0 0 0 0 0 0 0 0 0 0 0 0 0 0 0 0 0 0 0 0 0 0
0 0 0 0 0 0 0 0 0 0 0 0 0 0 0 0 0 0 0 0 0 0 0 0 0 0 0 0 0 0 0 0 0 0 0 0 0 0 0 0 0 0 0 0
0 0 0 0 0 0 0 0 0 0 0 0 0 0 0 0 0 0 0 0 0 0 0 0 0 0 0 0 0 0 0 0 0 0 0 0 0 0 0 0 0 0 0 0
0 0 0 0 0 0 0 0 0 0 0 0 0 0 0 0 0 0 0 0 0 0 0 0 0 0 0 0 0 0 0 0 0 0 0 0 0 0 0 0 0 0 0 0
0 0 0 0 0 0 0 0 0 0 0 0 0 0 0 0 0 0 0 0 0 0 0 0 0 0 0 0 0 0 0 0 0 0 0 0 0 0 0 0 0 0 0 0
0 0 0 0 0 0 0 0 0 0 0 0 0 0 0 0 0 0 0 0 0 0 0 0 0 0 0 0 0 0 0 0 0 0 0 0 0 0 0 0 0 0 0 0
0 0 0 0 0 0 0 0 0 0 0 0 0 0 0 0 0 0 0 0 0 0 0 0 0 0 0 0 0 0 0 0 0 0 0 0 0 0 0 0 0 0 0 0
0 0 0 0 0 0 0 0 0 0 0 0 0 0 0 0 0 0 0 0 0 0 0 0 0 0 0 0 0 0 0 0 0 0 0 0 0 0 0 0 0 0 0 0
Wind_Speed
7 4 6 9 10 11 13 13 12 10 8 5 3 4 3 1 3 6 8 10 11 13 13 14 15 15 15 15 14 14 14 14 14 14 14 13 13 13 13 12 12 11 11 10
7 6 7 9 10 11 12 12 13 12 7 3 2 2 2 1 3 6 7 9 10 12 13 14 15 15 15 15 14 14 15 15 14 14 14 13 13 13 12 12 11 11 11 11
7 5 8 11 9 9 9 8 9 9 4 2 3 3 3 2 2 4 6 8 9 11 12 13 14 15 15 15 15 14 15 15 14 14 14 14 14 13 13 12 12 11 11 11
5 6 10 1 2 2 5 5 4 4 3 3 4 3 2 2 3 3 4 7 9 9 11 12 13 14 14 15 15 15 15 15 15 15 14 14 14 13 13 12 11 11 11 11
5 8 6 4 2 2 4 3 2 3 4 5 5 4 2 2 3 3 3 5 7 8 9 10 12 14 15 15 16 15 15 15 15 15 15 14 15 14 13 12 12 11 11 11
6 8 6 3 4 1 4 4 3 3 4 5 5 6 1 5 5 4 3 3 4 6 8 9 10 12 15 15 16 16 16 15 15 15 15 15 14 14 12 11 11 11 11 11
8 7 2 5 2 3 5 3 5 4 5 5 4 5 6 6 5 5 3 2 3 5 7 8 9 12 14 14 15 14 14 14 14 14 14 14 13 12 12 11 11 11 11 11
7 7 2 4 1 1 5 5 4 5 5 5 4 4 4 5 5 4 2 0 2 4 5 6 8 10 11 12 12 12 13 13 13 14 13 12 13 12 12 12 11 11 10 10
1 2 5 3 3 4 3 3 4 5 5 4 4 4 4 4 4 3 3 2 0 2 4 5 7 9 10 10 10 11 12 13 12 13 12 11 12 13 12 11 10 10 10 10
2 3 3 2 3 3 3 3 4 4 4 4 3 3 3 3 3 3 3 2 1 2 3 4 5 7 7 8 8 10 11 11 11 11 11 11 9 10 10 10 10 9 9 9
2 2 2 3 4 4 3 3 3 4 4 3 3 2 3 2 2 2 2 2 1 1 2 3 4 5 6 7 9 10 10 10 10 10 9 9 9 7 9 8 7 7 7 7
1 2 2 3 4 4 3 3 4 4 4 4 3 2 3 3 3 3 2 2 1 1 2 3 3 4 4 6 8 9 8 8 8 8 8 8 8 6 2 1 4 4 1 2
2 3 3 3 3 4 4 5 5 4 4 4 4 4 4 4 4 3 3 2 2 2 3 3 3 3 4 5 7 8 7 7 6 6 6 7 7 6 6 4 4 4 4 3
1 0 2 3 3 4 4 4 4 5 5 5 5 5 5 5 5 4 4 4 4 4 4 4 4 4 3 5 6 7 7 6 5 5 5 6 6 6 6 6 6 4 4 5
2 1 3 3 2 3 3 4 6 6 6 6 6 6 7 7 7 7 6 6 6 6 6 6 6 5 4 5 6 5 5 4 5 4 4 4 5 5 5 5 5 5 5 6
1 3 4 4 3 5 6 6 7 7 6 7 7 7 7 8 8 8 9 9 9 9 8 8 7 6 5 6 6 5 5 6 5 4 4 4 4 3 3 4 4 3 4 4
2 3 4 5 5 6 7 7 6 6 7 7 7 7 8 9 10 10 9 9 10 10 9 9 8 7 7 6 6 5 5 6 6 4 4 4 3 3 3 3 3 2 2 3
2 3 4 5 5 6 6 7 7 7 7 7 7 8 9 9 9 9 8 8 10 11 11 9 8 8 8 7 5 5 5 5 5 4 4 4 4 3 3 3 3 3 2 4
4 5 6 6 6 6 6 7 7 8 7 7 8 9 8 8 8 8 8 9 10 10 9 9 9 8 8 8 6 5 6 6 6 5 5 4 3 3 3 2 2 2 1 1
7 7 8 8 7 7 7 7 8 8 8 8 8 8 8 8 8 8 9 10 9 7 7 8 8 7 7 7 5 5 6 6 6 5 5 4 4 3 2 2 2 2 1 1
8 8 9 9 9 9 9 8 8 8 8 8 8 8 8 8 8 8 8 9 8 8 7 7 7 6 6 5 5 6 6 6 6 5 5 5 4 4 3 3 3 2 2 2
7 9 10 10 10 10 9 8 8 9 9 8 9 9 8 8 9 9 9 7 7 7 6 7 7 8 7 5 6 6 6 6 5 5 5 4 4 3 3 3 3 3 3 3
8 9 9 9 9 9 9 8 9 9 9 9 8 8 8 7 6 6 7 6 7 7 7 8 8 9 7 5 6 6 6 6 6 5 5 4 4 4 3 3 3 3 4 4
9 9 9 9 9 9 9 9 9 8 9 8 8 8 7 6 6 7 7 7 7 6 8 8 8 8 5 5 6 6 6 5 5 4 4 4 3 4 4 4 4 4 4 4
9 9 9 9 8 7 7 8 8 8 8 7 8 8 6 6 6 6 6 7 6 5 6 7 5 5 5 6 6 6 6 6 5 4 4 4 4 4 4 4 4 4 4 4
8 7 7 7 6 5 5 5 5 6 6 6 6 6 6 6 6 5 5 7 8 6 6 5 5 4 5 6 6 6 5 4 4 4 5 4 5 5 4 4 5 4 4 4
8 7 6 6 6 6 6 6 6 6 6 6 6 6 6 5 5 6 6 5 5 5 5 5 5 5 6 6 6 6 6 6 5 5 5 4 5 4 5 5 4 4 4 5
Wind_Direction
253 250 229 230 227 223 231 247 258 263 270 299 340 338 340 295 202 185 183 185 186 188 187 187 187 187 187 187 186 186 187 189 188 187 185 186 184 184 186 188 189 186 189 192
229 229 234 238 237 237 239 247 256 265 271 337 0 340 328 292 216 201 193 193 190 190 190 191 190 189 188 187 184 185 189 189 186 185 183 184 183 183 183 187 190 186 192 196
230 212 232 231 230 235 238 248 257 261 281 337 318 336 333 317 267 228 208 198 196 194 193 193 193 192 190 187 185 188 191 190 185 185 184 184 184 183 185 186 188 190 194 199
238 217 231 165 74 261 248 257 274 288 319 324 324 326 334 336 307 272 233 208 199 198 196 196 193 189 190 186 186 190 193 191 186 186 186 184 185 185 186 188 190 192 196 200
238 233 230 177 157 250 251 250 332 309 310 314 314 267 209 34 342 305 271 231 209 201 197 194 191 188 187 187 188 190 191 189 186 186 187 186 188 188 188 189 191 194 197 201
227 241 237 119 90 16 254 218 67 358 330 323 306 263 65 24 349 329 301 242 212 200 193 189 190 187 187 189 190 193 192 190 188 188 189 190 190 189 188 190 194 198 199 202
225 235 229 75 76 231 237 74 40 359 343 326 323 322 342 335 336 334 318 257 199 190 186 185 183 184 190 192 194 193 190 188 188 188 191 191 190 189 188 190 195 204 202 204
222 230 169 74 80 352 33 28 357 344 337 334 324 316 321 329 333 339 349 2 177 178 175 176 178 182 189 195 194 191 189 188 188 189 191 188 188 189 191 192 193 200 205 210
265 58 72 62 49 40 12 348 343 338 337 329 320 326 339 342 342 351 12 32 153 175 170 171 179 187 192 192 189 189 189 190 190 190 193 190 187 188 190 193 201 200 201 208
174 124 87 70 63 40 9 341 334 337 330 323 316 323 348 359 2 4 10 17 31 168 174 175 182 191 192 183 183 186 188 189 188 189 190 190 192 193 195 196 204 206 205 208
168 109 108 86 49 33 10 348 341 344 348 343 336 340 359 15 12 10 20 357 16 154 175 175 174 179 184 181 181 185 187 186 187 187 187 185 190 195 202 202 205 208 209 206
27 45 357 26 16 10 9 4 1 1 13 20 15 15 25 29 21 15 26 23 45 123 149 158 160 166 175 174 176 178 178 181 183 182 178 182 177 172 125 162 141 164 170 201
6 1 10 15 14 16 17 15 14 17 19 29 38 47 52 50 40 34 38 41 57 76 96 117 130 144 164 170 170 175 176 175 178 176 172 179 176 174 170 147 106 124 147 148
36 29 100 67 43 28 26 33 47 50 44 43 49 53 58 60 54 46 44 50 61 69 73 83 95 101 128 152 159 165 166 156 165 164 166 170 169 172 174 170 165 163 163 173
47 75 94 88 70 59 55 64 64 57 51 48 52 54 54 57 56 49 48 59 68 71 70 69 71 72 87 114 126 132 139 136 143 143 148 153 157 162 164 165 164 164 162 160
67 118 117 109 93 76 67 65 65 60 58 59 61 59 59 65 63 57 50 53 60 59 58 62 65 68 78 93 105 110 105 93 107 120 128 133 141 153 157 159 166 171 170 162
144 120 110 104 89 75 64 60 63 64 66 67 68 70 71 74 69 62 56 54 56 55 53 54 53 58 70 81 92 99 104 106 110 112 114 120 130 140 143 152 156 157 144 115
85 99 103 102 99 89 77 72 71 70 69 70 72 71 68 67 65 62 60 62 63 57 47 46 47 53 62 66 69 78 89 95 103 108 111 108 111 120 125 129 133 136 137 136
88 95 93 93 93 88 85 85 83 80 76 76 75 73 70 68 68 67 64 61 58 54 43 41 44 52 58 55 56 73 77 83 86 88 92 100 105 102 108 118 124 125 122 120
90 91 94 95 93 92 90 90 90 84 78 77 78 76 71 67 67 70 69 63 51 46 44 40 46 49 49 49 42 75 76 77 79 80 78 76 76 74 72 73 73 77 72 42
90 94 95 94 91 87 85 85 86 84 81 78 77 74 71 70 70 69 69 67 52 41 50 53 48 44 44 42 51 67 71 73 74 74 74 70 66 62 55 48 42 33 26 5
86 90 92 91 90 87 84 84 84 85 84 80 78 77 77 74 72 70 64 59 57 37 47 55 49 34 18 27 62 65 69 71 71 69 70 71 68 62 56 47 41 35 27 21
85 86 89 91 91 90 87 84 81 81 81 79 77 74 72 68 66 69 69 58 57 46 52 52 33 16 357 52 66 65 64 64 64 64 63 62 63 59 53 46 43 35 24 14
85 87 87 90 91 91 88 85 81 79 80 79 75 72 72 74 70 63 65 64 48 46 63 54 32 11 5 54 58 58 58 57 55 55 54 51 46 45 41 30 27 24 18 6
83 84 85 83 82 81 84 86 86 83 81 76 73 68 63 60 63 63 62 62 58 54 73 73 46 8 37 53 53 53 52 45 32 27 40 37 33 34 32 26 23 15 10 4
84 81 80 79 75 74 79 80 79 76 74 72 66 61 62 63 66 67 67 66 61 54 55 61 60 50 52 52 47 43 43 47 37 34 36 34 34 33 31 24 16 9 3 357
85 82 79 78 74 71 73 75 74 69 65 65 68 63 60 58 58 59 59 57 57 54 50 47 46 46 46 45 44 38 34 32 30 27 28 31 31 27 24 14 7 3 354 354